C/2015 O1 ( PanSTARRS )

Japanese version
Home page
Updated on December 9, 2019

---------------------------------------------------------------------

* Profile

Discovery Date July 19, 2015
Magnitude 19.6 mag
Discoverer Pan-STARRS 1 telescope (Haleakala)

* Pictures

* Orbital Elements

Epoch 2018 Feb. 11.0 TT = JDT 2458160.5
T 2018 Feb. 19.02755 TT                                 MPCW
q   3.7296383            (2000.0)            P               Q
z  -0.0000002      Peri.   89.59342     -0.52094564     -0.50152729
                   Node   299.85574     -0.59864085     +0.79148717
e   1.0000009      Incl.  127.21109     +0.60847743     +0.34931139
From 3601 observations 2015 June 15-2019 May 7, mean residual 0".5.
     Nongravitational parameters Y1 = +6.06, Y2 = -1.7019.

* Finding Charts

* Magnitudes Graph

        m1 = 4.0 + 5 log d + 11.0 log r

---------------------------------------------------------------------

The orbital elements are published on M.P.E.C. 2019-J142.
The charts are made with StellaNavigator Ver.8 (AstroArts).
The magnitudes graphs are made with Comet for Windows.

---------------------------------------------------------------------

Copyright(C) Seiichi Yoshida (comet@aerith.net). All rights reserved.